Weather History for Gillette, WY

Change the Weather History Date:

Sunday, March 30, 2014

  Actual Average Record
Temperature  
Mean Temperature 43 °F 38 °F  
Max Temperature 57 °F 51 °F 75 °F (1978)
Min Temperature 28 °F 25 °F -13 °F (1936)
Degree Days  
Heating Degree Days 22 27  
Month to date heating degree days 920 911  
Since 1 July heating degree days 6565 6319  
Cooling Degree Days 0 0  
Month to date cooling degree days 0 0  
Year to date cooling degree days 0 0  
Moisture  
Dew Point 32 °F    
Average Humidity 66    
Maximum Humidity 92    
Minimum Humidity 40    
Precipitation  
Precipitation 0.10 in 0.04 in 0.45 in (1944)
Month to date precipitation 0.98 0.93  
Year to date precipitation 2.26 1.71  
Sea Level Pressure  
Sea Level Pressure 29.63 in    
Wind  
Wind Speed 11 mph (West)    
Max Wind Speed 28 mph    
Max Gust Speed 33 mph    
Visibility 9 miles    
Events Rain , Snow    
T = Trace of Precipitation, MM = Missing Value Source: NWS Daily Summary

Daily Weather History Graph

Daily Weather History Graph

Search for Another Location

Airport:

Trip Planner

Search our weather history database for the weather conditions in past years. The results will help you decide how hot, cold, wet, or windy it might be!

Date:

Astronomy

Mar. 30, 2014 Rise Set
Actual Time 6:46 AM MDT 7:27 PM MDT
Civil Twilight 6:17 AM MDT 7:56 PM MDT
Nautical Twilight 5:42 AM MDT 8:31 PM MDT
Astronomical Twilight 5:07 AM MDT 9:07 PM MDT
Moon 6:34 AM MDT (3/30) 7:44 PM MDT (3/30)
Length of Visible Light 13h 38m
Length of Day
12h 40m
Waning Crescent, 0% of the Moon is Illuminated
Mar 30
Waning Crescent
Mar 30
New
Apr 7
First Quarter
Apr 15
Full
Apr 22
Last Quarter

Hourly Weather History & Observations

Time (MDT) Temp. Windchill Dew Point Humidity Pressure Visibility Wind Dir Wind Speed Gust Speed Precip Events Conditions
12:53 AM 30.9 °F 26.2 °F 28.0 °F 89% 29.82 in 10.0 mi SW 4.6 mph - N/A   Clear
1:53 AM 35.1 °F 28.6 °F 30.9 °F 85% 29.80 in 10.0 mi West 8.1 mph - N/A   Clear
2:53 AM 30.0 °F - 27.0 °F 88% 29.80 in 10.0 mi Calm Calm - N/A   Clear
3:53 AM 28.0 °F 24.2 °F 26.1 °F 92% 29.78 in 10.0 mi SW 3.5 mph - N/A   Clear
4:53 AM 30.9 °F - 27.0 °F 85% 29.74 in 10.0 mi Calm Calm - N/A   Clear
5:53 AM 30.0 °F 25.2 °F 27.0 °F 88% 29.75 in 10.0 mi SSE 4.6 mph - N/A   Clear
6:53 AM 30.0 °F - 27.0 °F 88% 29.76 in 10.0 mi Calm Calm - N/A   Clear
7:53 AM 30.0 °F - 27.0 °F 88% 29.76 in 10.0 mi Calm Calm - N/A   Clear
8:53 AM 35.1 °F - 30.9 °F 85% 29.75 in 10.0 mi Calm Calm - N/A   Clear
9:53 AM 41.0 °F 39.0 °F 32.0 °F 70% 29.71 in 10.0 mi SSE 3.5 mph - N/A   Clear
10:53 AM 44.1 °F 37.4 °F 33.1 °F 65% 29.70 in 10.0 mi SSE 13.8 mph - N/A   Scattered Clouds
11:53 AM 46.9 °F - 33.1 °F 59% 29.62 in 10.0 mi SSE 21.9 mph 28.8 mph N/A   Scattered Clouds
12:53 PM 50.0 °F - 33.1 °F 52% 29.60 in 10.0 mi SSE 13.8 mph 19.6 mph N/A   Mostly Cloudy
1:53 PM 53.1 °F - 34.0 °F 48% 29.55 in 10.0 mi SSE 11.5 mph - N/A   Scattered Clouds
2:53 PM 57.0 °F - 34.0 °F 42% 29.50 in 10.0 mi SSE 13.8 mph - N/A   Clear
3:53 PM 57.0 °F - 35.1 °F 44% 29.47 in 10.0 mi ESE 10.4 mph - N/A   Clear
4:53 PM 55.0 °F - 35.1 °F 47% 29.46 in 10.0 mi ESE 8.1 mph - N/A   Mostly Cloudy
5:53 PM 52.0 °F - 35.1 °F 53% 29.47 in 10.0 mi ENE 6.9 mph - N/A   Overcast
6:53 PM 44.1 °F 37.4 °F 37.9 °F 79% 29.53 in 10.0 mi NNW 13.8 mph - 0.00 in   Overcast
7:53 PM 41.0 °F 30.9 °F 37.9 °F 89% 29.56 in 10.0 mi NW 24.2 mph 29.9 mph 0.00 in Rain Light Rain
8:13 PM 39.2 °F 28.7 °F 37.4 °F 93% 29.53 in 10.0 mi NW 23.0 mph 28.8 mph 0.00 in Rain Light Rain
8:25 PM 39.2 °F 29.0 °F 37.4 °F 93% 29.55 in 10.0 mi WNW 21.9 mph - 0.01 in Rain Light Rain
8:53 PM 36.0 °F 24.4 °F 34.0 °F 93% 29.60 in 10.0 mi NW 23.0 mph 27.6 mph 0.07 in Rain Light Rain
9:02 PM 35.6 °F 24.2 °F 33.8 °F 93% 29.56 in 10.0 mi NW 21.9 mph 28.8 mph 0.01 in Rain Light Rain
9:28 PM 33.8 °F 21.9 °F 30.2 °F 87% 29.57 in 2.5 mi NW 21.9 mph - 0.02 in Snow Light Snow
9:38 PM 33.8 °F 22.5 °F 30.2 °F 87% 29.57 in 4.0 mi NW 19.6 mph - 0.02 in Snow Light Snow
9:53 PM 33.1 °F 21.9 °F 30.9 °F 92% 29.60 in 7.0 mi NW 18.4 mph 27.6 mph 0.02 in   Overcast
10:48 PM 32.0 °F 19.8 °F 30.2 °F 93% 29.58 in 8.0 mi NW 20.7 mph 27.6 mph 0.01 in   Overcast
10:53 PM 32.0 °F 19.5 °F 30.0 °F 92% 29.61 in 7.0 mi NW 21.9 mph 29.9 mph 0.01 in   Overcast
11:46 PM 30.2 °F 16.5 °F 28.4 °F 93% 29.60 in 2.0 mi NW 24.2 mph 33.4 mph 0.00 in Snow Light Snow
11:53 PM 30.9 °F 17.2 °F 28.9 °F 92% 29.62 in 2.0 mi NW 25.3 mph 32.2 mph 0.00 in Snow Light Snow